DateTimeUTC,F1_A11,F1_S11,BsB_S11,BsG_S11,BsR_S11,BbsB_S11,BbsG_S11,BbsR_S11,BaB_A11,BaG_A11,BaR_A11,Tu_S11,T_S11,Uu_S11,U_S11,P_S11,T1_A11
2021-08-09T12:00:00Z,00000200,20000000,,,,,,,-000.14,-000.33,-000.04,18.9,25.2,08.9,06.1,0669.9,31.1
2021-08-09T12:01:00Z,00000200,20000000,,,,,,,0000.11,-000.11,0000.09,19.0,25.3,09.0,06.1,0669.9,31.1
2021-08-09T12:02:00Z,00000200,20000000,,,,,,,-000.06,-000.06,0000.04,19.0,25.3,08.9,06.1,0669.9,31.1
2021-08-09T12:03:00Z,00000200,60000000,,,,,,,0000.08,0000.18,0000.15,19.1,25.3,08.9,06.1,0669.9,31.1
2021-08-09T12:04:00Z,00000200,40000000,0000.77,0000.63,0000.25,0000.41,0000.31,-000.18,-000.57,-000.06,-000.37,19.3,25.3,08.8,06.1,0670.9,31.1
2021-08-09T12:05:00Z,00000200,00000000,0000.87,0000.96,0000.22,0000.34,0000.09,0000.09,0000.59,0000.22,0000.31,19.4,25.3,08.8,06.1,0671.0,31.1
2021-08-09T12:06:00Z,00000200,00000000,0001.28,0000.65,0000.54,0000.13,-000.01,0000.44,-000.44,-000.28,0000.15,19.4,25.3,08.8,06.2,0671.0,31.1
2021-08-09T12:07:00Z,00000200,00000000,0001.19,0000.50,0000.63,-000.08,0000.21,0000.21,0000.00,0000.22,-000.01,19.4,25.3,08.8,06.2,0671.1,31.1
2021-08-09T12:08:00Z,00000200,00000000,0000.82,0000.87,0000.21,0000.16,0000.02,-000.15,0000.08,0000.18,0000.28,19.4,25.3,08.8,06.1,0671.1,31.1
2021-08-09T12:09:00Z,00000200,00000000,0001.34,0000.77,0000.33,-000.11,0000.39,0000.18,-000.13,-000.40,0000.10,19.4,25.3,08.8,06.2,0671.0,31.1
2021-08-09T12:10:00Z,00000200,00000000,0000.56,0000.67,0000.15,0000.57,0000.36,0000.12,0000.07,0000.34,0000.14,19.4,25.3,08.9,06.2,0671.1,31.1
2021-08-09T12:11:00Z,00000200,00000000,0001.10,0000.61,0000.05,0000.14,0000.04,-000.10,-000.04,-000.28,-000.08,19.4,25.3,09.0,06.2,0671.1,31.1
2021-08-09T12:12:00Z,00000200,00000000,0000.82,0000.92,0000.29,0000.52,0000.36,0000.16,-000.07,-000.03,0000.55,19.4,25.3,08.9,06.2,0671.1,31.1
2021-08-09T12:13:00Z,00000200,00000000,0001.97,0000.57,0000.24,0000.49,-000.01,0000.07,0000.05,0000.11,-000.20,19.4,25.4,08.9,06.2,0671.1,31.1
2021-08-09T12:14:00Z,00000200,00000000,0000.69,0000.71,0000.27,0000.90,0000.22,0000.12,-000.16,-000.12,-000.27,19.4,25.4,08.9,06.2,0671.1,31.1
2021-08-09T12:15:00Z,00000200,00000000,0000.39,0000.92,-000.03,-000.37,-000.01,-000.14,-000.16,0000.11,0000.34,19.4,25.4,08.9,06.2,0671.1,31.1
2021-08-09T12:16:00Z,00000200,00000000,0001.53,0000.70,0000.10,0000.51,0000.37,0000.24,0000.21,0000.21,-000.26,19.4,25.3,08.9,06.2,0671.0,31.1
2021-08-09T12:17:00Z,00000200,00000000,0000.82,0000.50,0000.44,0000.26,0000.13,-000.14,-000.32,-000.49,0000.49,19.4,25.4,08.9,06.2,0671.1,31.1
2021-08-09T12:18:00Z,00000200,00000000,0000.08,0000.56,-000.01,0000.28,0000.03,0000.16,-000.03,-000.21,-000.05,19.4,25.4,08.9,06.2,0671.1,31.1
2021-08-09T12:19:00Z,00000200,00000000,0000.78,0000.60,0000.30,0000.48,0000.22,0000.07,-000.16,0000.06,0000.08,19.4,25.4,08.8,06.1,0671.0,31.1
2021-08-09T12:20:00Z,00000200,00000000,0001.00,0000.49,0000.09,0000.31,0000.05,-000.08,0000.26,0000.44,0000.04,19.4,25.4,09.0,06.2,0671.0,31.1
2021-08-09T12:21:00Z,00000200,00000000,0000.69,0000.26,0000.36,0000.11,0000.09,-000.03,-000.04,0000.11,0000.25,19.4,25.4,08.8,06.1,0671.0,31.1
2021-08-09T12:22:00Z,00000200,00000000,0000.62,0000.59,0000.79,0000.10,-000.02,0000.19,-000.14,-000.32,-000.09,19.4,25.4,08.9,06.2,0671.0,31.1
2021-08-09T12:23:00Z,00000200,00000000,0000.61,0000.61,0000.19,-000.35,-000.00,0000.09,-000.02,0000.14,0000.36,19.4,25.4,08.9,06.2,0671.0,31.1
2021-08-09T12:24:00Z,00000200,00000000,0000.87,0000.25,-000.03,0000.33,0000.04,-000.04,0000.52,0000.23,0000.14,19.4,25.4,09.2,06.3,0671.1,31.1
2021-08-09T12:25:00Z,00000200,00000000,0000.50,0000.24,0000.32,-000.20,-000.06,-000.03,-000.55,-000.51,0000.06,19.4,25.4,09.1,06.3,0671.0,31.1
2021-08-09T12:26:00Z,00000200,00000000,0000.45,0000.43,0000.11,-000.33,0000.20,-000.39,0000.33,0000.45,-000.03,19.4,25.4,09.1,06.3,0671.1,31.1
2021-08-09T12:27:00Z,00000200,00000000,0000.50,0000.46,0000.02,0000.40,0000.11,-000.25,0000.04,0000.31,-000.08,19.4,25.4,09.3,06.4,0671.0,31.1
2021-08-09T12:28:00Z,00000200,00000000,0000.59,0000.70,0000.07,-000.38,0000.03,-000.28,-000.58,-000.65,0000.04,19.4,25.4,09.1,06.3,0671.0,31.1
2021-08-09T12:29:00Z,00000200,00000000,0000.69,0000.86,0000.50,-000.10,-000.14,0000.18,0000.09,-000.20,0000.09,19.5,25.4,09.1,06.3,0671.1,31.1
2021-08-09T12:30:00Z,00000200,00000000,0001.63,0000.33,0000.47,-000.21,0000.15,0000.01,-000.09,0000.28,0000.17,19.5,25.4,09.0,06.3,0671.1,31.1
2021-08-09T12:31:00Z,00000200,00000000,0000.47,0000.63,0000.12,0000.26,0000.22,-000.19,-000.18,-000.51,-000.18,19.5,25.5,09.1,06.3,0671.1,31.1
2021-08-09T12:32:00Z,00000200,00000000,0000.65,0000.55,0000.44,0000.18,0000.27,-000.07,-000.11,0000.16,0000.18,19.4,25.5,09.1,06.3,0671.0,31.1
2021-08-09T12:33:00Z,00000200,00000000,0001.35,0000.66,0000.17,-000.14,0000.08,0000.04,-000.30,-000.20,0000.26,19.5,25.5,08.9,06.2,0671.0,31.1
2021-08-09T12:34:00Z,00000200,00000000,0000.87,0000.44,0000.37,0000.40,-000.16,0000.03,0000.04,0000.12,-000.22,19.5,25.5,09.0,06.3,0671.0,31.1
2021-08-09T12:35:00Z,00000200,00000000,0000.65,0001.00,0000.08,-000.13,0000.15,0000.12,0000.03,-000.20,-000.18,19.5,25.5,09.0,06.2,0671.1,31.1
2021-08-09T12:36:00Z,00000200,00000000,0000.11,0000.77,-000.18,0000.33,0000.21,-000.22,-000.37,-000.04,-000.12,19.5,25.5,08.9,06.2,0671.1,31.1
2021-08-09T12:37:00Z,00000200,00000000,0000.03,0000.41,-000.05,0000.20,0000.02,0000.06,-000.07,-000.29,-000.03,19.5,25.5,08.9,06.2,0671.0,31.1
2021-08-09T12:38:00Z,00000200,00000000,0000.10,0000.69,0000.22,0000.26,0000.07,-000.02,-000.06,0000.16,0000.02,19.5,25.5,08.8,06.1,0671.1,31.1
2021-08-09T12:39:00Z,00000200,00000000,0001.06,0000.60,0000.18,0000.67,0000.24,-000.18,0000.34,-000.07,0000.42,19.5,25.5,08.8,06.1,0671.1,31.1
2021-08-09T12:40:00Z,00000200,00000000,0001.56,0000.50,0000.19,0000.40,0000.09,-000.17,-000.23,0000.02,0000.34,19.5,25.5,08.9,06.1,0671.2,31.1
2021-08-09T12:41:00Z,00000200,00000000,0000.89,0000.62,0000.36,0000.47,0000.31,0000.06,0000.08,0000.18,-000.36,19.5,25.5,08.8,06.1,0671.1,31.1
2021-08-09T12:42:00Z,00000200,00000000,0001.33,0000.53,0000.22,0000.67,0000.06,0000.08,-000.34,-000.39,0000.50,19.5,25.5,08.9,06.1,0671.1,31.1
2021-08-09T12:43:00Z,00000200,00000000,0001.04,0000.75,0000.09,-000.12,0000.11,0000.13,0000.42,0000.77,0000.01,19.5,25.5,09.0,06.3,0671.1,31.1
2021-08-09T12:44:00Z,00000200,00000000,0000.82,0000.86,0000.58,0000.79,-000.04,0000.16,-000.10,-000.37,-000.36,19.5,25.5,08.9,06.2,0671.1,31.1
2021-08-09T12:45:00Z,00000200,00000000,0000.59,0000.34,0000.57,-000.10,0000.05,0000.07,-000.23,-000.01,0000.37,19.5,25.5,09.0,06.3,0671.1,31.1
2021-08-09T12:46:00Z,00000200,00000000,0000.54,0000.74,0000.23,0000.54,0000.21,-000.23,-000.41,-000.36,-000.24,19.5,25.5,08.9,06.2,0671.0,31.1
2021-08-09T12:47:00Z,00000200,00000000,0000.76,0000.55,0000.22,-000.10,-000.16,0000.22,-000.24,-000.38,-000.23,19.5,25.6,08.8,06.1,0671.0,31.1
2021-08-09T12:48:00Z,00000200,00000000,0000.76,0000.52,0000.45,-000.02,0000.23,0000.17,0000.38,0000.14,0000.02,19.6,25.6,08.8,06.1,0671.1,31.1
2021-08-09T12:49:00Z,00000200,00000000,0000.42,0000.57,0000.14,0000.26,0000.19,-000.22,-000.44,-000.33,-000.18,19.5,25.6,08.7,06.1,0671.0,31.1
2021-08-09T12:50:00Z,00000200,00000000,0000.15,0000.66,0000.30,-000.11,-000.07,-000.01,-000.38,0000.20,0000.08,19.6,25.6,08.7,06.0,0671.0,31.1
2021-08-09T12:51:00Z,00000200,00000000,0000.83,0000.33,0000.10,0000.38,0000.24,0000.08,0000.18,-000.07,0000.19,19.6,25.6,08.8,06.1,0671.1,31.1
2021-08-09T12:52:00Z,00000200,00000000,0000.32,0000.34,0000.61,-000.63,0000.20,0000.04,-000.30,-000.09,0000.07,19.6,25.6,08.8,06.1,0671.1,31.1
2021-08-09T12:53:00Z,00000200,00000000,0000.22,0000.18,0000.15,0000.45,0000.25,-000.14,0000.52,0000.33,0000.26,19.6,25.7,08.8,06.0,0671.0,31.1
2021-08-09T12:54:00Z,00000200,00000000,-000.18,0000.55,0000.50,0000.12,-000.03,-000.09,-000.43,-000.35,-000.30,19.6,25.7,08.7,06.0,0671.0,31.1
2021-08-09T12:55:00Z,00000200,00000000,0000.99,0000.65,0000.50,0000.05,0000.03,-000.02,0000.44,0000.36,0000.32,19.6,25.7,08.6,06.0,0671.1,31.1
2021-08-09T12:56:00Z,00000200,00000000,0000.11,0000.60,0000.28,-000.09,0000.25,-000.10,0000.07,-000.35,0000.19,19.6,25.6,08.7,06.0,0671.1,31.1
2021-08-09T12:57:00Z,00000200,40000000,,,,,,,-000.26,0000.16,0000.14,19.7,25.6,08.2,05.7,0671.1,31.1
2021-08-09T12:58:00Z,00000200,60000000,,,,,,,0000.56,0000.32,0000.16,19.4,25.7,08.7,05.9,0670.1,31.1
2021-08-09T12:59:00Z,00000200,20000000,,,,,,,-000.54,-000.15,0000.03,19.4,25.8,08.7,05.9,0670.1,31.1
